GEFSCGP_850_meantemp_006.txt.gz
Temperature
24 25 24 24 24 24 24 24 24 24 23 23 23 23 22 20 20 20 20 20 20 19 19 19 19 20 20 21 21 21 21 21 20 20 20 19 19 19 18 18 18 18 17 17
25 24 23 23 23 23 23 23 24 24 22 23 23 23 21 20 19 19 19 19 19 18 18 18 18 19 20 20 21 21 21 21 20 20 20 20 19 19 19 19 18 18 17 17
23 22 23 23 23 23 23 22 23 22 22 22 22 23 21 20 20 19 19 18 18 17 16 16 16 17 18 19 20 21 22 21 20 20 19 20 20 20 19 19 18 18 18 17
22 22 22 22 21 21 22 21 21 21 21 22 22 22 22 20 20 20 19 18 17 16 15 15 15 16 17 18 19 20 21 21 20 19 19 20 20 19 19 18 18 18 17 17
21 20 20 20 20 20 20 20 20 20 21 21 22 21 22 20 19 19 18 17 17 16 15 15 15 15 16 16 18 19 19 20 19 18 18 19 19 18 18 17 17 17 17 17
20 20 19 19 20 19 20 20 20 20 20 20 22 21 21 19 18 18 18 17 16 16 16 15 15 15 15 16 16 17 17 17 17 17 17 18 18 18 17 16 16 17 17 17
20 19 19 18 18 19 19 18 19 19 19 20 20 20 18 17 17 17 16 16 16 16 16 15 15 14 15 15 16 16 16 16 16 16 16 16 16 17 16 16 16 16 16 17
19 18 18 17 17 17 17 17 16 16 17 18 19 18 15 16 16 16 15 15 15 15 15 15 14 14 14 15 15 15 15 15 15 15 15 15 15 15 15 15 15 15 16 16
18 18 17 17 16 16 15 16 16 15 16 16 18 18 16 17 16 15 15 14 14 14 14 14 13 13 14 14 14 14 14 14 14 14 14 14 14 14 14 14 15 15 15 16
18 17 17 17 17 15 14 14 15 14 15 15 16 15 14 14 14 14 14 13 13 13 14 14 13 13 13 13 14 14 14 14 13 13 14 14 14 14 14 14 14 15 15 16
18 18 17 16 14 12 12 12 13 14 13 12 13 12 11 10 10 11 11 11 12 12 13 13 13 12 13 13 13 13 13 13 13 13 13 14 14 14 14 14 14 15 16 16
17 18 17 15 14 14 12 12 13 13 13 12 11 11 10 10 10 10 10 11 11 12 12 12 12 13 13 13 13 13 13 13 13 13 13 13 13 14 14 14 14 15 16 16
16 17 17 16 15 14 13 13 14 13 12 11 10 10 10 10 10 9 10 10 10 11 12 12 12 12 13 13 13 13 13 13 13 13 13 13 13 13 13 14 14 15 15 15
16 17 16 14 13 12 12 12 13 13 11 10 10 10 10 10 10 9 9 10 10 11 11 12 12 12 12 12 13 13 13 13 13 13 13 13 13 13 14 14 14 15 15 15
17 17 15 14 14 14 13 12 12 11 10 10 10 10 10 10 10 10 10 10 11 11 11 12 11 12 12 12 13 13 13 13 13 13 13 14 14 14 14 14 15 15 15 15
17 16 16 15 14 14 13 13 12 11 11 11 11 11 11 11 11 11 11 11 12 12 12 12 12 12 12 12 12 13 13 13 12 12 12 13 13 13 13 13 14 14 14 14
16 17 17 16 15 15 15 13 12 11 11 11 11 11 12 13 12 12 12 12 12 12 12 12 12 12 12 12 12 12 12 12 12 12 12 12 12 12 13 13 13 14 14 14
16 16 17 17 16 16 15 14 13 12 12 12 12 12 13 13 13 13 12 12 12 12 13 12 12 12 12 12 12 12 12 12 12 12 12 12 12 12 12 13 13 13 13 13
15 16 17 17 16 16 15 14 14 14 14 13 13 13 13 14 16 15 13 12 12 12 13 13 13 13 13 12 13 13 13 12 12 11 11 11 11 12 12 12 12 12 12 11
15 15 17 17 17 17 16 15 13 14 15 14 14 14 14 15 17 15 13 12 13 13 13 13 13 13 13 13 13 13 13 12 11 11 11 11 11 11 11 11 11 11 11 11
16 16 16 17 17 17 15 13 13 15 16 14 13 13 13 14 14 13 12 12 13 13 14 14 14 14 14 13 14 14 13 12 12 11 11 11 11 11 11 11 11 11 11 11
17 17 16 17 17 16 13 13 15 16 14 13 13 13 12 12 12 13 13 13 13 14 14 14 14 14 14 14 14 14 13 13 12 12 11 11 11 11 11 11 11 11 11 11
16 16 16 17 17 14 13 14 13 12 13 13 13 12 12 12 12 12 13 13 13 14 14 15 15 14 14 14 14 14 13 13 13 12 11 11 11 11 11 11 11 11 11 10
16 14 15 15 15 14 13 13 12 12 12 12 12 12 12 12 12 12 13 13 13 13 14 15 15 15 15 15 14 14 14 14 13 12 12 11 11 11 11 11 11 11 10 10
17 15 15 15 16 14 13 13 13 12 12 12 12 12 12 12 12 12 13 13 13 13 14 14 15 15 15 15 15 15 15 15 13 12 12 12 11 11 11 11 11 10 10 10
16 15 16 17 16 16 15 14 13 12 12 12 12 12 12 12 12 12 12 12 13 13 13 14 14 15 15 15 15 15 15 15 14 13 12 12 11 11 11 10 10 10 10 10

GEFSCGP_850_meantemp_012.txt.gz
Temperature
27 27 25 25 26 26 26 26 26 26 26 25 25 25 26 24 24 24 24 24 23 22 21 20 20 20 20 21 22 22 22 22 22 22 22 21 21 20 20 20 19 19 19 19
27 24 25 26 26 25 25 25 25 26 26 25 24 24 25 25 24 23 23 22 22 21 20 19 18 18 19 19 20 21 21 22 22 22 21 21 21 20 20 20 19 19 19 19
25 24 25 25 24 24 23 23 23 23 23 24 24 24 25 24 24 23 22 21 21 20 19 18 18 17 17 18 18 19 19 20 21 22 21 21 20 20 20 19 19 19 18 18
25 24 24 23 22 22 22 23 22 22 22 22 23 22 24 23 22 21 20 20 20 19 19 18 17 17 16 17 17 18 18 19 20 21 21 21 20 20 19 19 19 18 18 18
22 22 22 21 21 22 21 22 22 22 21 21 22 22 22 19 17 17 18 19 19 19 18 17 16 16 16 16 16 17 17 18 19 19 20 20 20 19 19 19 18 18 17 17
22 22 21 20 21 22 22 22 22 22 22 20 21 21 18 16 15 16 16 17 18 17 17 16 15 15 15 15 16 16 17 17 17 18 18 18 18 18 18 18 17 17 17 17
22 21 21 20 20 20 20 20 20 20 20 19 20 19 14 15 16 15 16 16 16 16 15 14 14 14 14 14 15 15 16 16 17 17 17 17 17 17 17 17 16 16 16 16
23 20 20 20 18 18 19 19 18 17 18 18 19 17 14 14 14 14 15 15 15 14 14 13 13 13 14 14 14 14 14 15 16 16 16 16 16 16 16 15 15 15 15 15
22 20 20 20 19 18 18 18 19 18 19 18 18 16 15 14 13 13 13 13 13 13 13 13 13 13 13 14 14 14 14 14 14 15 15 15 15 15 14 14 14 14 14 14
22 21 20 20 19 18 18 18 18 17 16 16 16 13 11 11 11 12 12 12 12 12 12 12 12 13 13 13 13 13 13 14 14 14 14 14 14 14 14 13 13 13 13 13
22 22 20 19 17 16 16 16 17 17 16 14 13 12 10 10 10 10 10 10 11 11 11 12 12 13 13 13 13 13 13 13 13 13 13 13 13 13 13 13 13 13 14 14
21 21 20 18 18 18 16 16 16 15 14 13 11 11 10 9 9 9 9 10 10 11 11 12 12 13 13 13 13 13 13 13 13 13 13 13 13 13 13 14 14 14 14 15
19 21 20 17 18 17 16 15 16 15 14 12 11 10 10 10 10 10 10 10 11 12 12 12 13 13 13 13 13 13 13 13 13 13 13 13 13 13 14 14 14 14 15 15
18 20 18 17 16 16 15 15 15 15 12 11 11 11 11 11 11 11 12 12 13 13 13 13 13 13 13 13 13 13 13 13 13 13 13 13 13 13 14 14 14 14 15 15
21 19 18 18 18 17 16 15 15 14 14 13 13 13 13 13 13 13 13 14 14 14 14 14 14 14 14 13 13 13 13 13 13 13 13 13 13 13 13 13 14 14 14 14
21 20 19 18 18 18 17 16 16 15 15 15 15 14 15 15 14 14 14 14 15 15 14 14 14 14 14 14 14 13 13 12 12 12 12 12 13 13 13 13 13 13 14 14
21 21 20 19 19 18 17 17 16 16 16 15 15 15 16 16 15 15 14 15 15 15 15 15 15 15 15 15 14 14 13 13 12 12 12 12 12 12 12 12 12 12 13 13
21 20 21 21 19 18 18 18 17 16 16 16 16 17 17 16 15 15 15 15 15 15 15 15 15 15 15 15 15 14 13 13 12 12 12 12 12 12 12 12 12 12 12 12
20 20 20 21 19 18 18 18 18 17 17 18 17 18 18 17 17 16 15 15 15 15 15 15 15 15 15 15 15 15 14 13 12 12 12 12 12 12 12 12 12 11 11 11
20 20 19 21 20 20 19 19 18 18 17 18 18 18 18 18 16 16 15 15 15 15 15 15 15 15 15 15 15 15 14 13 13 12 12 12 12 12 12 12 12 12 11 11
20 20 19 20 21 20 19 18 18 17 17 18 17 17 17 16 16 16 15 15 15 15 15 15 15 15 15 15 15 15 14 13 13 12 12 12 12 12 12 12 12 12 11 11
21 21 21 21 21 19 18 18 18 18 17 17 17 16 16 16 16 16 15 15 15 15 15 15 15 16 16 16 15 15 14 14 13 13 13 12 12 12 11 11 11 11 11 11
21 21 20 20 19 18 17 18 18 18 18 17 16 16 16 16 16 16 16 15 15 15 15 15 15 16 16 16 16 15 15 14 14 14 13 13 12 12 12 11 11 11 10 10
23 21 20 20 20 18 17 18 16 17 17 16 16 16 16 16 16 16 16 15 15 15 15 15 15 15 16 16 16 16 15 15 14 14 14 13 12 12 12 11 11 11 10 10
22 21 20 20 20 19 18 17 17 16 17 16 16 16 15 15 15 15 15 15 15 15 15 15 15 15 16 16 16 15 15 15 14 14 14 13 13 12 11 11 11 10 10 10
23 21 20 21 21 20 19 17 17 16 16 16 16 16 15 15 15 15 15 15 15 15 15 15 15 15 15 15 15 15 15 15 14 14 14 13 13 12 11 11 11 10 10 10

GEFSCGP_850_meantemp_018.txt.gz
Temperature
22 19 18 19 20 21 20 20 19 20 20 20 19 18 17 17 17 16 16 16 16 16 17 17 18 18 18 19 19 19 20 20 20 20 20 20 20 20 20 20 20 20 19 19
19 18 20 20 20 19 19 18 18 18 19 20 17 16 16 15 15 14 14 14 14 15 16 17 17 17 17 17 18 18 18 19 19 20 20 20 20 20 20 20 20 20 19 19
18 19 20 20 18 18 18 18 18 18 18 18 17 15 14 15 14 13 13 13 13 14 14 15 16 16 17 17 17 17 17 18 18 19 19 20 20 19 19 19 19 19 19 19
17 18 18 17 17 17 17 18 18 18 17 15 17 14 12 13 13 13 12 12 12 13 14 14 15 15 16 16 16 17 17 17 18 18 19 19 20 19 19 19 19 19 19 18
17 17 16 16 17 17 17 17 17 17 16 15 15 13 12 12 11 12 12 12 12 12 13 13 14 14 15 15 15 16 16 16 17 17 18 18 19 19 19 19 19 18 18 18
18 18 18 17 17 17 16 16 16 14 13 13 13 12 11 11 11 11 11 11 12 12 12 13 13 14 14 14 15 15 15 15 16 16 17 17 18 18 18 18 18 18 17 17
17 17 17 17 15 15 14 13 13 13 12 13 13 12 11 12 12 11 11 11 11 11 12 12 13 13 13 13 14 14 14 14 15 15 16 16 16 17 17 17 17 17 16 16
16 15 16 16 15 14 14 13 12 13 13 13 13 11 11 12 12 11 11 11 11 11 12 12 12 12 13 13 13 13 13 13 14 14 14 15 15 15 16 15 15 15 15 15
15 15 17 17 15 14 14 12 13 12 13 12 12 12 12 12 12 11 11 10 11 11 11 12 12 12 13 13 13 13 13 13 13 13 13 14 14 14 14 14 14 14 14 14
15 15 16 16 15 14 13 13 11 11 11 11 12 11 10 10 10 10 10 10 10 11 11 11 12 12 12 12 12 12 12 12 13 13 13 13 13 13 13 13 14 14 14 14
15 14 14 14 13 12 12 12 11 10 10 10 10 10 11 10 10 10 10 10 11 11 11 12 12 12 12 12 12 12 12 12 12 12 12 13 13 13 13 13 13 13 13 13
14 12 12 14 15 14 13 12 11 10 10 10 10 10 11 10 10 10 10 11 12 12 12 12 12 12 12 12 12 12 12 12 12 13 13 13 13 13 13 13 13 13 14 14
14 12 12 13 13 13 13 12 11 10 9 10 10 10 12 11 11 12 12 13 13 13 13 13 13 13 13 12 12 12 12 12 12 13 13 13 13 13 13 13 13 14 14 14
15 12 13 14 13 13 13 13 12 10 9 10 10 11 11 11 11 12 13 13 14 14 14 14 13 13 13 13 12 12 12 12 12 12 13 13 13 13 13 13 13 13 14 14
14 13 14 14 15 14 13 13 13 12 11 10 11 11 12 12 12 13 14 14 14 14 14 14 14 14 13 13 12 12 12 12 12 12 12 12 12 12 13 13 13 13 13 13
14 14 15 15 15 14 14 14 13 13 13 12 12 12 13 13 13 14 14 14 14 14 14 14 14 14 13 13 13 13 12 12 12 12 12 12 12 12 12 12 12 12 12 12
13 13 13 13 15 15 13 14 14 14 14 13 12 13 13 13 14 14 14 14 14 14 14 15 15 14 14 14 13 13 12 12 12 12 12 12 12 12 12 12 12 12 12 12
14 13 12 13 14 14 14 15 15 14 14 14 14 14 14 14 14 14 14 14 15 15 15 15 15 15 14 14 14 13 13 12 12 12 12 11 11 11 12 12 12 11 11 11
14 14 13 12 13 14 15 15 15 14 14 15 15 15 15 15 14 14 14 14 15 15 15 15 15 15 15 14 14 14 13 13 12 12 12 11 11 11 12 12 11 11 11 11
14 12 13 13 15 14 15 15 16 15 14 15 15 15 15 14 12 13 15 15 15 15 15 15 15 15 15 15 14 14 14 13 13 12 12 12 11 11 11 11 11 11 10 10
14 14 13 13 14 15 16 16 16 13 13 16 16 16 15 14 13 15 15 15 15 15 15 15 15 15 15 15 15 14 14 13 13 12 12 12 11 11 11 11 11 10 10 10
13 13 13 12 14 15 16 15 14 14 16 16 16 16 16 15 15 15 15 15 15 15 15 15 15 15 15 15 15 15 14 14 13 13 12 12 11 11 11 11 10 10 10 10
13 13 12 13 14 16 17 17 18 17 17 16 16 16 16 15 15 15 15 15 15 15 15 15 15 15 15 15 15 15 14 14 13 13 12 12 11 11 11 10 10 10 10 10
15 15 13 13 14 16 17 18 18 17 17 17 16 16 16 15 15 15 15 15 15 15 15 15 15 15 15 15 15 14 14 14 14 13 12 12 11 11 11 10 10 10 10 10
15 15 14 14 15 15 16 17 17 17 17 17 16 16 16 15 15 15 15 15 15 15 15 15 15 15 15 14 14 14 14 14 13 13 12 12 11 11 11 10 10 10 10 10
15 14 14 14 16 15 17 17 17 17 17 16 16 16 15 15 15 15 15 15 15 15 15 15 15 15 14 14 15 15 14 14 13 13 12 12 11 11 11 11 10 10 10 9

GEFSCGP_850_meantemp_024.txt.gz
Temperature
19 17 16 16 17 19 19 19 18 17 16 14 13 12 13 13 13 12 12 12 12 13 14 15 15 15 16 16 16 17 17 17 17 18 18 19 20 20 20 20 20 19 19 19
16 15 16 17 17 17 18 17 17 16 16 14 12 12 13 13 13 12 12 11 11 12 13 14 15 15 15 15 16 16 16 17 17 17 17 18 19 19 20 20 20 20 19 19
15 16 17 16 15 16 16 16 16 16 15 14 13 13 12 12 13 12 12 11 11 11 12 13 13 14 14 14 15 15 15 16 16 16 17 17 18 18 19 19 20 20 19 19
15 16 16 15 15 14 15 16 16 16 14 12 13 12 11 10 11 12 12 11 11 11 11 12 12 13 13 13 13 14 14 15 15 15 15 16 16 17 18 18 19 19 19 19
16 16 15 14 15 15 15 15 15 15 13 11 10 11 10 10 10 11 11 11 11 11 11 11 12 12 12 13 13 13 13 14 14 14 14 15 15 16 16 17 18 18 18 18
15 16 15 15 15 15 14 14 13 11 11 11 10 11 10 10 10 10 11 11 11 11 11 11 12 12 12 13 13 13 13 13 13 13 13 14 14 15 15 16 16 17 17 17
15 14 14 15 13 13 12 13 13 13 11 11 11 11 11 11 11 11 11 11 11 11 11 11 11 12 12 12 12 12 13 13 13 13 13 13 14 14 14 15 15 15 16 16
15 13 14 14 13 12 12 11 12 13 12 10 11 11 11 12 12 12 11 11 11 11 11 11 11 11 11 12 12 12 12 12 12 13 13 13 13 14 14 14 14 14 15 15
13 14 15 14 13 13 12 10 11 10 11 10 11 11 12 12 12 11 11 11 11 11 11 11 11 11 11 12 12 12 12 12 12 12 12 13 13 13 13 13 14 14 14 14
13 13 14 14 13 12 11 10 9 10 11 11 11 11 10 10 10 10 11 11 12 12 12 12 11 11 11 11 12 12 12 12 12 12 12 12 13 13 13 13 13 13 13 13
13 13 13 12 12 11 11 10 8 8 9 9 10 10 11 10 10 10 10 12 12 12 12 12 12 12 11 11 11 11 12 12 12 12 12 13 13 13 13 13 13 13 13 13
12 10 11 13 13 13 11 10 9 9 8 8 9 10 11 10 11 11 12 12 13 13 13 13 12 12 12 11 11 11 11 12 12 12 12 12 13 13 13 13 13 13 14 14
13 11 12 13 13 12 11 11 9 8 8 8 9 10 11 11 12 12 12 13 13 13 13 13 13 12 12 12 11 11 11 11 11 12 12 12 12 13 13 13 13 13 13 13
13 10 12 14 13 12 12 12 10 9 8 9 9 10 10 10 10 12 13 13 13 14 14 14 13 13 12 12 12 11 11 11 11 11 12 12 12 12 12 12 12 13 13 13
12 12 12 13 13 13 13 12 11 10 9 9 10 10 10 11 11 12 13 13 14 14 14 14 14 13 13 12 12 12 11 11 11 11 11 11 11 11 11 12 12 12 12 12
12 12 13 13 14 13 13 12 12 12 10 10 11 11 11 13 13 13 13 14 14 14 14 14 14 14 13 13 12 12 12 11 11 11 11 11 11 11 11 11 11 11 11 11
11 12 12 12 13 12 12 12 12 12 12 11 11 11 12 12 13 13 14 14 14 14 14 14 14 14 14 13 13 12 12 12 11 11 11 11 11 11 11 10 11 11 11 11
11 11 10 11 12 13 14 13 12 12 12 11 11 12 13 13 14 14 14 14 14 14 14 14 14 14 14 14 13 13 12 12 12 11 11 11 11 10 10 10 10 10 10 10
11 11 10 10 12 12 13 13 12 12 13 12 12 13 14 14 13 14 14 14 14 14 14 14 14 14 14 14 14 13 13 12 12 12 11 11 11 10 10 10 10 10 10 10
11 10 10 11 14 14 15 14 14 13 13 14 14 14 14 13 11 12 14 14 14 14 14 14 14 14 14 14 14 14 13 13 12 12 11 11 11 10 10 10 10 10 10 10
13 11 11 11 12 13 14 14 15 13 13 15 15 15 14 13 13 15 15 14 14 14 14 14 14 14 14 14 14 14 13 13 12 12 11 11 11 10 10 10 10 10 9 9
12 11 10 10 12 13 14 13 13 13 16 16 16 16 16 15 15 15 15 14 14 14 14 14 14 14 14 14 14 14 13 13 13 12 12 11 11 10 10 10 10 10 9 9
11 11 10 11 13 15 15 16 17 17 17 17 17 16 16 15 15 15 15 15 15 14 14 14 14 14 14 14 14 14 13 13 13 12 12 11 11 10 10 10 10 10 9 9
11 11 10 10 11 15 16 17 17 17 18 18 17 17 16 16 15 15 15 15 15 15 14 14 14 14 14 14 14 14 13 13 13 12 12 11 11 10 10 10 10 9 9 9
13 10 11 12 12 14 16 17 17 17 17 17 17 16 16 16 16 15 15 15 15 15 14 14 14 14 14 14 14 14 13 13 13 12 12 11 11 10 10 10 9 9 9 8
12 12 13 14 17 16 19 19 18 17 18 17 17 16 16 16 16 16 15 15 15 15 15 14 14 14 14 14 14 14 13 13 13 12 12 11 11 11 10 10 10 9 9 8